Location: Gro� Glienicke
(52.4675°N, 13.1079°E)
Time: 19:11:54
(UTC+00:00)

Cosmos 1420 Rocket - Pass Details

Date: 06 July 2020
Orbit: 754 x 781 km, 74.0° (Epoch: 11 August)

Event Time Altitude Azimuth Distance (km) Brightness Sun altitude
Rises 22:12:34 0° 334° (NNW) 3,250 9.0 -13.8°
Reaches altitude 10° 22:14:57 10° 334° (NNW) 2,324 7.9 -13.9°
Maximum altitude 22:20:15 89° 64° (ENE) 782 4.0 -14.1°
Enters shadow 22:23:54 21° 155° (SSE) 1,701 5.2 -14.2°
